Home   Weather   Stockton   Past weeks

Flag for USA Past Weather in Stockton, California, USA — Yesterday and Last 2 Weeks

Now
56 °F

Sunny.


Feels Like: 54 °F
Forecast: 36 / 63 °F
Wind: 9 mph from Northwest

Location: Stockton Metropolitan Airport

Current Time: Mar 1, 2017 at 12:06:11 pm

Latest Report: Mar 1, 2017 at 10:55 am


Visibility: 10 mi

Pressure: 30.41 "Hg

Humidity: 62%

Dew Point: 43 °F

Location of StocktonLocation

Past Weather in Stockton — Graph

°F

Stockton Temperature Yesterday

Maximum temperature yesterday: 59 °F (at 1:55 pm)
Minimum temperature yesterday: 35 °F (at 5:55 am)
Average temperature yesterday: 48 °F

High & Low Weather Summary for the Past Weeks

 TemperatureHumidityPressure
High68 °F (Feb 14, 3:55 pm)100% (Feb 20, 2:55 am)30.42 "Hg (Feb 20, 2:55 am)
Low33 °F (Feb 24, 5:55 am)39% (Feb 27, 3:55 pm)29.18 "Hg (Feb 17, 5:55 pm)
Average51 °F80%29.98 "Hg
* Reported Feb 14 10:55 am — Mar 1 10:55 am, Stockton, Weather by CustomWeather, © 2017

Note: Actual official high and low records may vary slightly from our data, if they occured in-between our weather recording intervals... More about our weather records

Advertising

Stockton Weather History for the Previous 24 Hours

Scroll right to see more
 ConditionsComfort  
Time TempWeatherWind HumidityBarometerVisibility
10:55 am
Wed, Mar 1
56 °FSunny.9 mph62%30.41 "Hg10 mi
9:55 am52 °FSunny.5 mph72%30.42 "Hg10 mi
8:55 am49 °FSunny.6 mph80%30.41 "Hg10 mi
7:55 am43 °FSunny.6 mph93%30.41 "Hg10 mi
6:55 am34 °FSunny.6 mph100%30.39 "Hg10 mi
5:55 am37 °FClear.No wind96%30.38 "Hg10 mi
4:55 am35 °FClear.No wind96%30.37 "Hg10 mi
3:55 am37 °FClear.No wind100%30.35 "Hg9 mi
2:55 am37 °FClear.No wind100%30.35 "Hg10 mi
1:55 am39 °FClear.5 mph93%30.35 "Hg10 mi
12:55 am40 °FClear.5 mph89%30.34 "Hg10 mi
11:55 pm
Tue, Feb 28
43 °FClear.5 mph89%30.33 "Hg10 mi
10:55 pm44 °FClear.7 mph89%30.33 "Hg10 mi
9:55 pm47 °FClear.9 mph83%30.31 "Hg10 mi
8:55 pm45 °FClear.7 mph76%30.30 "Hg10 mi
7:55 pm47 °FClear.5 mph66%30.28 "Hg10 mi
6:55 pm47 °FClear.7 mph64%30.26 "Hg10 mi
5:55 pm54 °FSunny.10 mph47%30.24 "Hg10 mi
4:55 pm57 °FSunny.12 mph41%30.23 "Hg10 mi
3:55 pm59 °FSunny.14 mph41%30.22 "Hg10 mi
2:55 pm59 °FSunny.15 mph42%30.21 "Hg10 mi
1:55 pm59 °FSunny.10 mph42%30.21 "Hg10 mi
12:55 pm57 °FSunny.9 mph51%30.21 "Hg10 mi
Weather by CustomWeather, © 2017

See weather overviewHow to use our weather pages